Stations météo

réclame
Mon MeteoGroup
Kiruna Airport, Suède (2044): Température de l'air & dewpoint: 14.10.2018 22:00:00 - 20.10.2018 22:00:00 (CEST)Kiruna Airport, Suède (2044): Vitesse du vent: 14.10.2018 22:00:00 - 20.10.2018 22:00:00 (CEST)Kiruna Airport, Suède (2044): Direction du vent: 14.10.2018 22:00:00 - 20.10.2018 22:00:00 (CEST)Kiruna Airport, Suède (2044): reduced air pressure: 14.10.2018 22:00:00 - 20.10.2018 22:00:00 (CEST)Kiruna Airport, Suède (2044): visibility: 14.10.2018 22:00:00 - 20.10.2018 22:00:00 (CEST)
Date & Time tt [°C] td [°C] ff [km/h] ff [knt] dd ppp [hPa] vv [km]
20.10.2018 22:00:00 1,0 0,0 9 5 SSW - 10
20.10.2018 21:00:00 1,3 -0,6 16 9 SW 1012,5 10
20.10.2018 20:00:00 1,9 0,0 22 12 SW 1012,3 10
20.10.2018 19:00:00 1,9 0,1 15 8 SW 1013,2 10
20.10.2018 18:00:00 2,4 0,9 21 11 SW 1013,5 10
20.10.2018 17:00:00 3,8 1,3 15 8 SSW 1012,9 10
20.10.2018 16:00:00 4,1 2,1 15 8 SW 1013,9 10
20.10.2018 15:00:00 3,8 2,0 13 7 SW 1013,9 10
20.10.2018 14:00:00 3,9 2,1 9 5 SSW 1013,8 10
20.10.2018 13:00:00 3,0 1,7 8 4 SW 1013,9 10
20.10.2018 12:00:00 2,9 1,3 5 3 SW 1014,2 10
20.10.2018 11:00:00 1,8 0,6 9 5 SW 1014,5 10
20.10.2018 10:00:00 1,2 0,2 8 4 WSW 1014,6 10
20.10.2018 09:00:00 1,2 0,0 9 5 SW 1014,3 10
20.10.2018 08:00:00 0,2 -0,2 11 6 SW 1014,6 10
20.10.2018 07:00:00 0,1 -0,5 8 4 WSW 1014,7 10
20.10.2018 06:00:00 0,2 -0,5 9 5 SW 1014,7 10
20.10.2018 05:00:00 -0,1 -0,9 13 7 SW 1014,9 10
20.10.2018 04:00:00 -0,9 -1,5 13 7 SW 1015,2 10
20.10.2018 03:00:00 -1,5 -1,9 13 7 SSW 1015,6 10
20.10.2018 02:00:00 -1,0 -1,3 15 8 SW 1015,6 10
20.10.2018 01:00:00 -1,1 -1,2 9 5 SSW 1015,6 10
20.10.2018 00:00:00 -2,0 -2,1 9 5 SW 1016,2 10
19.10.2018 23:00:00 -0,1 -0,1 9 5 SW 1015,8 10
19.10.2018 22:00:00 -1,0 -1,0 8 4 SW 1015,7 10
19.10.2018 21:00:00 0,5 0,5 5 3 SSW 1015,4 10
19.10.2018 20:00:00 0,4 0,4 8 4 SSW 1015,4 10
19.10.2018 19:00:00 0,2 0,1 0 0 N 1014,7 10
19.10.2018 18:00:00 1,1 0,4 4 2 - 1014,3 10
19.10.2018 17:00:00 2,1 0,9 5 3 E 1013,9 10
19.10.2018 16:00:00 3,9 2,3 5 3 NNE 1013,1 10
19.10.2018 15:00:00 5,3 2,8 8 4 ENE 1012,4 10
19.10.2018 14:00:00 6,3 2,6 4 2 WNW 1011,7 10
19.10.2018 13:00:00 7,2 2,1 11 6 NW 1010,8 10
19.10.2018 12:00:00 6,6 2,5 9 5 N 1010,3 10
19.10.2018 11:00:00 5,9 2,4 13 7 N 1009,6 10
19.10.2018 10:00:00 5,3 1,4 5 3 - 1008,8 10
19.10.2018 09:00:00 4,5 0,5 11 6 NW 1008,2 10
19.10.2018 08:00:00 3,5 0,5 9 5 SSW 1007,4 10
19.10.2018 07:00:00 2,9 1,6 16 9 NW 1006,4 10
19.10.2018 06:00:00 1,7 1,0 5 3 W 1005,9 10
19.10.2018 05:00:00 0,7 -0,5 4 2 ENE 1004,8 10
19.10.2018 04:00:00 1,7 0,2 4 2 SSE 1004,1 10
19.10.2018 03:00:00 2,6 0,3 11 6 W 1002,8 10
19.10.2018 02:00:00 3,1 0,5 15 8 SSW 1001,7 10
19.10.2018 01:00:00 2,1 0,2 13 7 SSW 1001,4 10
19.10.2018 00:00:00 2,9 0,5 18 10 SW 1000,9 10
18.10.2018 23:00:00 2,9 0,3 24 13 SW 1000,2 10
18.10.2018 22:00:00 2,6 0,3 22 12 SW 999,9 10
18.10.2018 21:00:00 2,9 0,5 26 14 SW 1000,0 10
18.10.2018 20:00:00 3,3 0,5 22 12 SW 1000,0 10
18.10.2018 19:00:00 3,3 0,4 24 13 SSW 1000,2 10
18.10.2018 18:00:00 3,9 0,4 21 11 SW 1000,5 10
18.10.2018 17:00:00 4,0 0,3 21 11 SW 1000,9 10
18.10.2018 16:00:00 4,2 0,2 24 13 SW 1001,3 10
18.10.2018 15:00:00 4,6 0,4 15 8 SSW 1001,5 10
18.10.2018 14:00:00 5,5 0,9 13 7 SSW 1001,9 10
18.10.2018 13:00:00 4,5 0,8 18 10 SSW 1002,8 10
18.10.2018 12:00:00 3,7 0,2 13 7 SSW 1003,3 10
18.10.2018 11:00:00 2,5 -0,3 18 10 SSW 1003,9 10
18.10.2018 10:00:00 1,7 -0,4 11 6 SSW 1004,1 10
18.10.2018 09:00:00 0,9 -0,9 21 11 SSW 1003,8 10
18.10.2018 08:00:00 1,0 -1,2 16 9 SW 1003,6 10
18.10.2018 07:00:00 1,3 -0,9 16 9 SW 1003,7 10
18.10.2018 06:00:00 0,9 -1,3 18 10 SW 1003,9 10
18.10.2018 05:00:00 0,2 -0,7 18 10 SSW 1003,6 10
18.10.2018 04:00:00 -0,3 -1,0 15 8 SSW 1004,4 10
18.10.2018 03:00:00 -0,1 -0,7 16 9 SW 1004,5 10
18.10.2018 02:00:00 0,2 -0,4 13 7 SW 1004,4 10
18.10.2018 01:00:00 0,3 -0,3 13 7 SSW 1004,5 10
18.10.2018 00:00:00 0,8 -0,1 18 10 SW 1004,7 10
17.10.2018 23:00:00 0,1 0,0 16 9 SW 1005,1 10
17.10.2018 22:00:00 0,5 -0,1 21 11 SW 1005,2 10
17.10.2018 21:00:00 1,6 0,9 18 10 SSW 1004,9 10
17.10.2018 20:00:00 1,7 0,8 22 12 SSW 1004,9 10
17.10.2018 19:00:00 1,9 1,0 21 11 SSW 1005,3 10
17.10.2018 18:00:00 1,9 1,0 21 11 SSW 1006,0 10
17.10.2018 17:00:00 2,3 1,3 24 13 SSW 1006,0 10
17.10.2018 16:00:00 2,5 1,3 24 13 SSW 1006,7 10
17.10.2018 15:00:00 3,0 1,5 24 13 SSW 1006,9 10
17.10.2018 14:00:00 3,1 1,5 9 5 S 1007,3 10
17.10.2018 13:00:00 2,7 1,7 21 11 SSW 1007,9 10
17.10.2018 12:00:00 2,4 1,4 26 14 SSW 1008,3 10
17.10.2018 11:00:00 3,1 0,8 29 16 SSW 1008,6 10
17.10.2018 10:00:00 2,7 0,4 15 8 S 1009,0 10
17.10.2018 09:00:00 2,9 0,6 24 13 SSW 1009,3 10
17.10.2018 08:00:00 1,5 0,2 16 9 SSW 1010,0 10
17.10.2018 07:00:00 2,1 0,2 18 10 SSW 1010,7 10
17.10.2018 06:00:00 2,1 0,2 22 12 SSW 1011,2 10
17.10.2018 05:00:00 2,0 0,1 18 10 SSW 1011,8 10
17.10.2018 04:00:00 0,8 -0,7 13 7 SSW 1013,1 10
17.10.2018 03:00:00 1,3 -0,5 9 5 S 1013,5 10
17.10.2018 02:00:00 0,0 -1,1 5 3 SW 1014,5 10
17.10.2018 01:00:00 1,6 -0,5 8 4 SW 1014,3 10
17.10.2018 00:00:00 1,7 -0,4 15 8 SSW 1014,8 10
16.10.2018 23:00:00 2,3 -0,3 9 5 S 1014,7 10
16.10.2018 22:00:00 3,1 -0,2 21 11 SW 1014,8 10
16.10.2018 21:00:00 3,3 -0,2 8 4 S 1015,2 10
16.10.2018 20:00:00 4,0 0,0 13 7 SW 1014,4 10
16.10.2018 19:00:00 3,7 -0,1 11 6 WSW 1014,6 10
16.10.2018 18:00:00 4,7 -0,1 18 10 WSW 1014,0 10
16.10.2018 17:00:00 4,2 -0,4 15 8 SW 1013,3 10
16.10.2018 16:00:00 4,9 0,1 16 9 WSW 1012,5 10
16.10.2018 15:00:00 6,2 0,0 18 10 WSW 1011,8 50
16.10.2018 14:00:00 7,4 -0,1 28 15 WSW 1010,9 10
16.10.2018 13:00:00 7,2 0,0 22 12 WSW 1010,2 10
16.10.2018 12:00:00 6,6 -0,2 24 13 W 1009,7 10
16.10.2018 11:00:00 4,3 -0,5 22 12 SSW 1009,6 10
16.10.2018 10:00:00 2,4 -1,2 18 10 SW 1009,9 10
16.10.2018 09:00:00 0,9 -1,3 21 11 SW 1009,6 10
16.10.2018 08:00:00 -1,0 -2,6 15 8 SW 1009,6 10
16.10.2018 07:00:00 0,0 -1,7 15 8 SSW 1009,5 10
16.10.2018 06:00:00 0,5 -1,4 15 8 SW 1009,6 10
16.10.2018 05:00:00 1,1 -1,1 15 8 SSW 1009,8 10
16.10.2018 04:00:00 -0,8 -1,8 9 5 SW 1010,4 10
16.10.2018 03:00:00 1,5 -1,1 9 5 SSW 1010,3 10
16.10.2018 02:00:00 1,8 -0,8 11 6 SSW 1010,3 10
16.10.2018 01:00:00 1,7 -0,9 16 9 SW 1010,8 10
16.10.2018 00:00:00 2,0 -0,6 9 5 SSW 1011,0 10
15.10.2018 23:00:00 2,0 -0,6 11 6 SSW 1011,3 10
15.10.2018 22:00:00 3,1 -0,5 18 10 SW 1011,0 10
15.10.2018 21:00:00 2,8 -0,5 5 3 WSW 1011,4 10
15.10.2018 20:00:00 3,7 -0,3 4 2 S 1011,1 10
15.10.2018 19:00:00 4,3 0,1 13 7 SW 1011,1 10
15.10.2018 18:00:00 4,6 0,0 16 9 SW 1011,1 10
15.10.2018 17:00:00 5,1 0,3 13 7 SW 1011,2 10
15.10.2018 16:00:00 5,6 1,1 5 3 - 1010,9 10
15.10.2018 15:00:00 6,6 0,5 5 3 E 1010,5 10
15.10.2018 14:00:00 7,9 0,6 5 3 - 1010,2 10
15.10.2018 13:00:00 6,8 0,9 9 5 ENE 1009,8 10
15.10.2018 12:00:00 7,0 1,1 8 4 W 1009,0 10
15.10.2018 11:00:00 6,0 1,1 18 10 NNW 1007,9 10
15.10.2018 10:00:00 5,4 0,8 24 13 NNW 1007,1 10
15.10.2018 09:00:00 4,9 1,0 18 10 N 1005,5 10
15.10.2018 08:00:00 5,4 1,5 18 10 N 1004,0 10
15.10.2018 07:00:00 5,5 3,5 21 11 NNW 1002,3 10
15.10.2018 06:00:00 7,0 5,6 15 8 NNW 1000,8 10
15.10.2018 05:00:00 9,0 7,3 8 4 N 998,9 10
15.10.2018 04:00:00 9,4 7,8 13 7 SW 997,9 10
15.10.2018 03:00:00 9,8 8,1 15 8 SSW 997,6 10
15.10.2018 02:00:00 11,0 8,6 13 7 SW 997,5 10
15.10.2018 01:00:00 11,2 8,9 9 5 SW 997,4 10
15.10.2018 00:00:00 12,0 9,7 15 8 SW 997,5 10
14.10.2018 23:00:00 12,2 11,1 9 5 SW 997,1 10
14.10.2018 22:00:00 11,5 10,6 11 6 SW 997,6 10

tt = Température de l'air
td = dewpoint
ff = Vitesse du vent
dd = Direction du vent
ppp = reduced air pressure
vv = visibility

stations d'obs. à proximité